Retour au catalogue

DELTA 1 DEB

ActifSSO
NORAD 42556·DEBRIS·🇺🇸 United States

Lancé Jul 23, 1972 depuis Vandenberg Space Force Base

Loading…

Prochains Passages (prochaines 24 heures)

TLE

FraisSource: Space-Track

Époque: Sep 13, 2026, 09:55 UTC

1 42556U 72058JP  26256.41327652  .00001480  00000-0  47544-3 0  9995
2 42556  98.4428 317.0969 0269311 181.0720 178.9916 14.22176839659852

Suivez DELTA 1 DEB en temps réel avec AllMySat

Download on the App Store